Location: Maccacari
(45.1333°N, 11.1333°E)
Time: 04:22:19
(UTC+00:00)

S-56A Canister/Altair - Pass Details

Date: 28 June 2021
Orbit: 631 x 2501 km, 38.9° (Epoch: 03 August)

Event Time Altitude Azimuth Distance (km) Brightness Sun altitude
Exits shadow 00:17:55 15° 131° (SE) 1,906 9.3 -20.3°
Drops below altitude 10° 00:19:26 10° 113° (ESE) 2,174 9.8 -20.2°
Sets 00:22:13 0° 94° (E) 2,979 10.7 -20.1°
